• In Russia
  • List of Countries
  • For 7 days
  • Water Temperature
  • Satellite Maps
  • Weather Map
  • Weather Widgets
  • user-avatar
    Login

    Hourly Weather Matyki

    Today, 15 October, Monday

    Time Temperature Precipitation Wind Pressure Humidity
    00:00 +13°C° 0 mm 4 mps 756 mmHg 71%
    01:00 +12°C° 0 mm 4 mps 756 mmHg 74%
    02:00 +12°C° 0 mm 4 mps 756 mmHg 75%
    03:00 +11°C° 0 mm 4 mps 756 mmHg 76%
    04:00 +11°C° 0 mm 4 mps 756 mmHg 76%
    05:00 +11°C° 0 mm 4 mps 756 mmHg 75%
    06:00 +11°C° 0 mm 4 mps 756 mmHg 74%
    07:00 +11°C° 0 mm 4 mps 757 mmHg 71%
    08:00 +13°C° 0 mm 4 mps 757 mmHg 64%
    09:00 +15°C° 0 mm 5 mps 757 mmHg 57%
    10:00 +17°C° 0 mm 5 mps 757 mmHg 50%
    11:00 +19°C° 0 mm 5 mps 756 mmHg 47%
    12:00 +20°C° 0 mm 5 mps 756 mmHg 43%
    13:00 +21°C° 0 mm 5 mps 756 mmHg 40%
    14:00 +20°C° 0 mm 4 mps 756 mmHg 43%
    15:00 +19°C° 0 mm 4 mps 756 mmHg 47%
    16:00 +19°C° 0 mm 3 mps 756 mmHg 50%
    17:00 +17°C° 0 mm 3 mps 756 mmHg 53%
    18:00 +15°C° 0 mm 4 mps 755 mmHg 55%
    19:00 +14°C° 0 mm 4 mps 755 mmHg 57%
    20:00 +13°C° 0 mm 3 mps 756 mmHg 58%
    21:00 +13°C° 0 mm 3 mps 756 mmHg 59%
    22:00 +12°C° 0 mm 3 mps 756 mmHg 59%
    23:00 +12°C° 0 mm 3 mps 756 mmHg 60%

    Tomorrow, 16 October, Tuesday

    Time Temperature Precipitation Wind Pressure Humidity
    00:00 +11°C° 0 mm 3 mps 756 mmHg 60%
    01:00 +11°C° 0 mm 3 mps 756 mmHg 61%
    02:00 +11°C° 0 mm 3 mps 756 mmHg 61%
    03:00 +10°C° 0 mm 3 mps 755 mmHg 62%
    04:00 +10°C° 0 mm 3 mps 755 mmHg 62%
    05:00 +10°C° 0 mm 3 mps 756 mmHg 62%
    06:00 +10°C° 0 mm 3 mps 756 mmHg 63%
    07:00 +10°C° 0 mm 3 mps 756 mmHg 63%
    08:00 +12°C° 0 mm 3 mps 756 mmHg 58%
    09:00 +14°C° 0 mm 3 mps 756 mmHg 53%
    10:00 +17°C° 0 mm 3 mps 756 mmHg 48%
    11:00 +18°C° 0 mm 3 mps 756 mmHg 46%
    12:00 +19°C° 0 mm 3 mps 756 mmHg 44%
    13:00 +20°C° 0 mm 3 mps 756 mmHg 42%
    14:00 +19°C° 0 mm 2 mps 756 mmHg 45%
    15:00 +18°C° 0 mm 2 mps 756 mmHg 48%
    16:00 +17°C° 0 mm 2 mps 756 mmHg 51%
    17:00 +16°C° 0 mm 2 mps 756 mmHg 53%
    18:00 +15°C° 0 mm 2 mps 756 mmHg 55%
    19:00 +14°C° 0 mm 2 mps 756 mmHg 57%
    20:00 +14°C° 0 mm 2 mps 756 mmHg 57%
    21:00 +13°C° 0 mm 2 mps 756 mmHg 57%
    22:00 +13°C° 0 mm 2 mps 756 mmHg 58%
    23:00 +13°C° 0 mm 2 mps 756 mmHg 58%

    Day after tomorrow, 17 October, Wednesday

    Time Temperature Precipitation Wind Pressure Humidity
    00:00 +12°C° 0 mm 2 mps 756 mmHg 58%
    01:00 +12°C° 0 mm 2 mps 756 mmHg 59%
    02:00 +12°C° 0 mm 2 mps 756 mmHg 59%
    03:00 +12°C° 0 mm 2 mps 756 mmHg 59%
    04:00 +10°C° 0 mm 2 mps 756 mmHg 60%
    05:00 +10°C° 0 mm 2 mps 756 mmHg 59%
    06:00 +10°C° 0 mm 2 mps 757 mmHg 59%
    07:00 +10°C° 0 mm 2 mps 757 mmHg 59%
    08:00 +13°C° 0 mm 2 mps 757 mmHg 54%
    09:00 +15°C° 0 mm 2 mps 757 mmHg 49%
    10:00 +17°C° 0 mm 3 mps 757 mmHg 43%
    11:00 +19°C° 0 mm 3 mps 757 mmHg 41%
    12:00 +20°C° 0 mm 2 mps 757 mmHg 38%
    13:00 +21°C° 0 mm 2 mps 757 mmHg 36%
    14:00 +20°C° 0 mm 2 mps 757 mmHg 39%
    15:00 +19°C° 0 mm 2 mps 756 mmHg 43%
    16:00 +18°C° 0 mm 2 mps 756 mmHg 46%
    17:00 +17°C° 0 mm 2 mps 756 mmHg 49%
    18:00 +15°C° 0 mm 2 mps 756 mmHg 51%
    19:00 +14°C° 0 mm 2 mps 756 mmHg 54%
    20:00 +14°C° 0 mm 2 mps 756 mmHg 55%
    21:00 +13°C° 0 mm 2 mps 756 mmHg 56%
    22:00 +13°C° 0 mm 2 mps 756 mmHg 57%
    23:00 +13°C° 0 mm 2 mps 756 mmHg 58%

    18 October, Thursday

    Time Temperature Precipitation Wind Pressure Humidity
    00:00 +12°C° 0 mm 2 mps 756 mmHg 60%
    01:00 +12°C° 0 mm 2 mps 756 mmHg 62%
    02:00 +12°C° 0 mm 2 mps 756 mmHg 64%
    03:00 +10°C° 0 mm 2 mps 756 mmHg 66%
    04:00 +10°C° 0 mm 2 mps 756 mmHg 68%
    05:00 +11°C° 0 mm 1 mps 756 mmHg 69%
    06:00 +11°C° 0 mm 1 mps 756 mmHg 70%
    07:00 +11°C° 0 mm 1 mps 755 mmHg 70%
    08:00 +13°C° 0 mm 1 mps 755 mmHg 66%
    09:00 +14°C° 0 mm 1 mps 755 mmHg 61%
    10:00 +16°C° 0 mm 1 mps 755 mmHg 56%
    11:00 +18°C° 0 mm 1 mps 755 mmHg 53%
    12:00 +19°C° 0 mm 1 mps 755 mmHg 50%
    13:00 +20°C° 0 mm 1 mps 755 mmHg 47%
    14:00 +19°C° 0 mm 1 mps 755 mmHg 50%
    15:00 +18°C° 0 mm 1 mps 755 mmHg 53%
    16:00 +15°C° 0 mm 0 mps 754 mmHg 56%
    17:00 +15°C° 0 mm 0 mps 755 mmHg 58%
    18:00 +15°C° 0 mm 1 mps 755 mmHg 60%
    19:00 +14°C° 0 mm 1 mps 755 mmHg 62%
    20:00 +13°C° 0 mm 0 mps 755 mmHg 63%
    21:00 +13°C° 0 mm 0 mps 755 mmHg 63%
    22:00 +13°C° 0 mm 0 mps 755 mmHg 64%
    23:00 +12°C° 0 mm 0 mps 755 mmHg 65%

    19 October, Friday

    Time Temperature Precipitation Wind Pressure Humidity
    00:00 +13°C° 0 mm 1 mps 755 mmHg 65%
    01:00 +13°C° 0 mm 1 mps 755 mmHg 66%
    02:00 +13°C° 0 mm 1 mps 755 mmHg 66%
    03:00 +13°C° 0 mm 1 mps 754 mmHg 67%
    04:00 +13°C° 0 mm 1 mps 754 mmHg 67%
    05:00 +13°C° 0 mm 1 mps 754 mmHg 68%
    06:00 +13°C° 0 mm 1 mps 755 mmHg 69%
    07:00 +13°C° 0 mm 1 mps 755 mmHg 69%
    08:00 +14°C° 0 mm 1 mps 755 mmHg 67%
    09:00 +15°C° 0 mm 1 mps 755 mmHg 65%
    10:00 +16°C° 0 mm 1 mps 755 mmHg 63%
    11:00 +16°C° 0 mm 2 mps 755 mmHg 62%
    12:00 +17°C° 0 mm 2 mps 755 mmHg 62%
    13:00 +17°C° 0 mm 2 mps 755 mmHg 61%
    14:00 +17°C° 0 mm 2 mps 754 mmHg 65%
    15:00 +16°C° 0 mm 2 mps 754 mmHg 68%
    16:00 +16°C° 0 mm 2 mps 754 mmHg 72%
    17:00 +15°C° 0 mm 2 mps 754 mmHg 74%
    18:00 +15°C° 0 mm 2 mps 755 mmHg 77%
    19:00 +14°C° 0 mm 2 mps 755 mmHg 79%
    20:00 +14°C° 0 mm 2 mps 755 mmHg 80%
    21:00 +14°C° 0 mm 2 mps 755 mmHg 81%
    22:00 +13°C° 0 mm 2 mps 755 mmHg 82%
    23:00 +13°C° 0 mm 2 mps 755 mmHg 82%

    20 October, Saturday

    Time Temperature Precipitation Wind Pressure Humidity
    00:00 +13°C° 0 mm 2 mps 755 mmHg 83%
    01:00 +11°C° 0 mm 3 mps 755 mmHg 83%
    02:00 +11°C° 0 mm 3 mps 755 mmHg 84%
    03:00 +11°C° 0 mm 3 mps 755 mmHg 85%
    04:00 +10°C° 0 mm 3 mps 755 mmHg 86%
    05:00 +10°C° 0 mm 3 mps 755 mmHg 86%
    06:00 +10°C° 0 mm 3 mps 756 mmHg 86%
    07:00 +10°C° 0 mm 3 mps 756 mmHg 87%
    08:00 +11°C° 0 mm 3 mps 756 mmHg 80%
    09:00 +12°C° 0 mm 4 mps 756 mmHg 74%
    10:00 +12°C° 0 mm 4 mps 757 mmHg 68%
    11:00 +13°C° 0 mm 4 mps 757 mmHg 65%
    12:00 +13°C° 0 mm 4 mps 757 mmHg 62%
    13:00 +13°C° 0 mm 5 mps 757 mmHg 59%
    14:00 +12°C° 0 mm 4 mps 757 mmHg 61%
    15:00 +12°C° 0 mm 4 mps 757 mmHg 62%
    16:00 +11°C° 0 mm 4 mps 757 mmHg 63%
    17:00 +11°C° 0 mm 3 mps 757 mmHg 67%
    18:00 +10°C° 0 mm 3 mps 757 mmHg 70%
    19:00 +9°C° 0 mm 3 mps 757 mmHg 73%
    20:00 +9°C° 0 mm 3 mps 758 mmHg 74%
    21:00 +9°C° 0 mm 3 mps 758 mmHg 75%
    22:00 +10°C° 0 mm 3 mps 758 mmHg 77%
    23:00 +10°C° 0 mm 3 mps 758 mmHg 80%
    Show more